COSMOS 2251 DEB, 47052

Orbit data source: Space-Track

COSMOS 2251 DEB, 47052 is space debris in LEO originally from a launch on Wed, 16 Jun 1993 UTC launched from the Plesetsk Missile And Space Complex (PKMTR). The debris from Iridium 33, an American commercial communications satellite, has been tracked extensively since its accidental collision with the defunct Russian satellite Cosmos 2251 in 2009. This event, occurring at high speed in low Earth orbit (LEO), generated thousands of pieces of space debris, significantly increasing the risk of further collisions. The Iridium 33 debris cloud has impacted space traffic management and orbital debris mitigation strategies, making it a subject of ongoing study in space situational awareness.

Loading next visibility...
Identifier
47052, 1993-036BXG
Orbit
LEO
Country
Flag of CISCIS
Related business
Manufacturer
Unknown
Mission
Spacecraft
Bus & Motor
Unknown
Mass
Unknown
Launch date (UTC)
1993-06-16 (32 years ago)
Launch vehicle
Unknown
Launch site
Plesetsk Missile And Space Complex (PKMTR)
Object type
Payload
Rocket body
Debris
Shape & HBR
Unknown shape, 0.1 m
Radar Cross Section
Small (<0.1 m²)

Expand to show TLE details & history
Last TLE update: 2 days ago

TLE from 2 days ago
0 COSMOS 2251 DEB
1 47052U 93036BXG 25298.80729419  .00001515  00000-0  52650-3 0  9998
2 47052  74.0486  68.1716 0059025 156.0317 354.9149 14.35365222611019
Epoch: 2025-10-25T19:22Z
TLE epoch observation values (Epoch: 2025-10-25T19:22:30.218Z)
Latitude
27.94204°
Longitude
-85.55978°
Altitude
734.92 km
Speed
7.512 km/s
True Right ascension
15h 57m 59s
True Declination
27° 47' 58"
Sunlit
Object was in daylight at epoch
Visualization orbit readout
Latitude
Unknown
Longitude
Unknown
Altitude
Unknown
Speed
Unknown
Apparent Right ascension
Unknown
Apparent Declination
Unknown
Sunlit
N/A
Visualization observer readout
Local Sidereal Time
11:14:45
Azimuth
Unknown
Elevation
Unknown
Doppler factor
Unknown
Orbital elements
Apogee altitude
813.677 km
Perigee altitude
729.276 km
Semi-major axis
7,149.613 km
Eccentricity
0.0059
Inclination
74.0486°
RAAN
68.1716°
Arg. of periapsis
156.0317°
True anomaly
354.85451°
Mean anomaly
354.9149°
Eccentric anomaly
354.88475°
Mean motion
3.59021 °/min
Orbital period
100.27 mins
BSTAR
0.0005265
Loading maneuver chart data...
Computing Atmospheric mass density...

Documentation

Showing up to 5 results
|